Siloam Springs, AR

9:51 PM CST on February 24, 2017 (GMT -0600)
Smith

Weather History for KSLG - March, 2014

Change the Weather History Date:

Tuesday, March 18, 2014

  Actual Average Record
Temperature  
Mean Temperature 56 °F -  
Max Temperature 69 °F 55 °F 78 °F (2009)
Min Temperature 42 °F 37 °F 35 °F (2001)
Degree Days  
Heating Degree Days 10    
Growing Degree Days 6 (Base 50)    
Moisture  
Dew Point 35 °F    
Average Humidity 50    
Maximum Humidity 70    
Minimum Humidity 32    
Precipitation  
Precipitation 0.00 in - - ()
Sea Level Pressure  
Sea Level Pressure 29.61 in    
Wind  
Wind Speed 16 mph (SSW)    
Max Wind Speed 33 mph    
Max Gust Speed 44 mph    
Visibility 10 miles    
Events      
Averages and records for this station are not official NWS values.
T = Trace of Precipitation, MM = Missing Value Source: NWS Daily Summary

Daily Weather History Graph

Daily Weather History Graph

Search for Another Location

Airport or City:

Trip Planner

Search our weather history database for the weather conditions in past years. The results will help you decide how hot, cold, wet, or windy it might be!

Date:

Astronomy

Mar. 18, 2014 Rise Set
Actual Time 7:24 AM CDT 7:28 PM CDT
Civil Twilight 6:58 AM CDT 7:53 PM CDT
Nautical Twilight 6:28 AM CDT 8:23 PM CDT
Astronomical Twilight 5:58 AM CDT 8:53 PM CDT
Moon 9:41 PM CDT (3/18) 8:18 AM CDT (3/18)
Length of Visible Light 12h 54m
Length of Day
12h 03m
Waning Gibbous, 96% of the Moon is Illuminated
Mar 18
Waning Gibbous
Mar 23
Last Quarter
Mar 30
New
Apr 7
First Quarter
Apr 15
Full

Hourly Weather History & Observations

Time (CDT) Temp. Windchill Dew Point Humidity Pressure Visibility Wind Dir Wind Speed Gust Speed Precip Events Conditions
12:15 AM 44.6 °F 39.7 °F 30.2 °F 57% 29.71 in 10.0 mi South 9.2 mph - N/A   Clear
12:35 AM 44.6 °F 40.2 °F 30.2 °F 57% 29.71 in 10.0 mi South 8.1 mph - N/A   Clear
12:55 AM 44.6 °F 39.7 °F 30.2 °F 57% 29.70 in 10.0 mi South 9.2 mph - N/A   Clear
1:15 AM 44.6 °F 39.2 °F 32.0 °F 61% 29.70 in 10.0 mi South 10.4 mph - N/A   Clear
1:35 AM 44.6 °F 39.2 °F 32.0 °F 61% 29.69 in 10.0 mi South 10.4 mph - N/A   Clear
1:55 AM 44.6 °F 38.8 °F 32.0 °F 61% 29.68 in 10.0 mi South 11.5 mph - N/A   Clear
2:15 AM 44.6 °F 39.2 °F 32.0 °F 61% 29.67 in 10.0 mi South 10.4 mph - N/A   Clear
2:35 AM 44.6 °F 39.7 °F 32.0 °F 61% 29.66 in 10.0 mi SSE 9.2 mph - N/A   Clear
2:55 AM 42.8 °F 36.6 °F 33.8 °F 70% 29.65 in 10.0 mi SSE 11.5 mph - N/A   Clear
3:15 AM 42.8 °F 36.6 °F 33.8 °F 70% 29.64 in 10.0 mi SSE 11.5 mph - N/A   Clear
3:35 AM 42.8 °F 36.6 °F 33.8 °F 70% 29.63 in 10.0 mi SSE 11.5 mph - N/A   Clear
3:55 AM 42.8 °F 36.6 °F 33.8 °F 70% 29.62 in 10.0 mi SSE 11.5 mph - N/A   Clear
4:15 AM 44.6 °F 39.2 °F 33.8 °F 66% 29.61 in 10.0 mi South 10.4 mph - N/A   Clear
4:35 AM 44.6 °F 38.1 °F 33.8 °F 66% 29.61 in 10.0 mi SSE 13.8 mph 20.7 mph N/A   Clear
4:55 AM 44.6 °F 37.8 °F 33.8 °F 66% 29.61 in 10.0 mi South 15.0 mph 19.6 mph N/A   Clear
5:15 AM 44.6 °F 37.2 °F 33.8 °F 66% 29.60 in 10.0 mi SSE 17.3 mph 23.0 mph N/A   Clear
5:35 AM 42.8 °F 35.1 °F 33.8 °F 70% 29.60 in 10.0 mi SSE 16.1 mph 20.7 mph N/A   Clear
5:55 AM 42.8 °F 35.4 °F 33.8 °F 70% 29.59 in 10.0 mi SSE 15.0 mph 18.4 mph N/A   Clear
6:15 AM 42.8 °F 36.6 °F 33.8 °F 70% 29.60 in 10.0 mi SSE 11.5 mph - N/A   Clear
6:35 AM 42.8 °F 35.4 °F 33.8 °F 70% 29.60 in 10.0 mi SSE 15.0 mph 20.7 mph N/A   Clear
6:55 AM 42.8 °F 34.8 °F 32.0 °F 66% 29.59 in 10.0 mi SSE 17.3 mph 24.2 mph N/A   Clear
7:15 AM 42.8 °F 35.8 °F 32.0 °F 66% 29.59 in 10.0 mi SSE 13.8 mph 19.6 mph N/A   Clear
7:35 AM 42.8 °F 35.1 °F 32.0 °F 66% 29.59 in 10.0 mi SSE 16.1 mph 23.0 mph N/A   Clear
7:55 AM 42.8 °F 34.3 °F 32.0 °F 66% 29.58 in 10.0 mi SSE 19.6 mph 27.6 mph N/A   Clear
8:15 AM 44.6 °F 36.9 °F 33.8 °F 66% 29.57 in 10.0 mi SSE 18.4 mph 25.3 mph N/A   Clear
8:35 AM 44.6 °F 36.4 °F 33.8 °F 66% 29.57 in 10.0 mi South 20.7 mph 27.6 mph N/A   Clear
8:55 AM 46.4 °F 40.4 °F 33.8 °F 62% 29.57 in 10.0 mi South 13.8 mph 26.5 mph N/A   Clear
9:15 AM 48.2 °F - 33.8 °F 58% 29.57 in 10.0 mi South 19.6 mph 33.4 mph N/A   Clear
9:35 AM 50.0 °F - 33.8 °F 54% 29.57 in 10.0 mi South 18.4 mph 31.1 mph N/A   Clear
9:55 AM 51.8 °F - 33.8 °F 50% 29.57 in 10.0 mi South 23.0 mph 34.5 mph N/A   Clear
10:15 AM 51.8 °F - 33.8 °F 50% 29.57 in 10.0 mi South 23.0 mph 28.8 mph N/A   Clear
10:35 AM 53.6 °F - 35.6 °F 51% 29.57 in 10.0 mi South 24.2 mph 43.7 mph N/A   Clear
10:55 AM 53.6 °F - 35.6 °F 51% 29.57 in 10.0 mi South 24.2 mph 40.3 mph N/A   Clear
11:15 AM 55.4 °F - 35.6 °F 47% 29.57 in 10.0 mi South 32.2 mph 43.7 mph N/A   Clear
11:35 AM 55.4 °F - 35.6 °F 47% 29.56 in 10.0 mi South 33.4 mph 41.4 mph N/A   Clear
11:55 AM 57.2 °F - 35.6 °F 44% 29.56 in 10.0 mi South 29.9 mph 39.1 mph N/A   Clear
12:15 PM 57.2 °F - 37.4 °F 48% 29.55 in 10.0 mi SSW 26.5 mph 39.1 mph N/A   Clear
12:35 PM 60.8 °F - 37.4 °F 42% 29.54 in 10.0 mi SSW 25.3 mph 41.4 mph N/A   Clear
12:55 PM 60.8 °F - 37.4 °F 42% 29.53 in 10.0 mi SSW 33.4 mph 43.7 mph N/A   Clear
1:15 PM 62.6 °F - 39.2 °F 42% 29.53 in 10.0 mi SSW 26.5 mph 41.4 mph N/A   Clear
1:35 PM 64.4 °F - 37.4 °F 37% 29.52 in 10.0 mi SSW 28.8 mph 43.7 mph N/A   Clear
1:55 PM 64.4 °F - 37.4 °F 37% 29.51 in 10.0 mi South 31.1 mph 39.1 mph N/A   Clear
2:15 PM 64.4 °F - 37.4 °F 37% 29.52 in 10.0 mi SSW 31.1 mph 39.1 mph N/A   Clear
2:35 PM 66.2 °F - 39.2 °F 37% 29.52 in 10.0 mi SSW 26.5 mph 34.5 mph N/A   Clear
2:55 PM 66.2 °F - 39.2 °F 37% 29.51 in 10.0 mi SSW 26.5 mph 36.8 mph N/A   Clear
3:15 PM 68.0 °F - 39.2 °F 35% 29.52 in 10.0 mi SW 26.5 mph 38.0 mph N/A   Clear
3:35 PM 68.0 °F - 39.2 °F 35% 29.52 in 10.0 mi SSW 27.6 mph 35.7 mph N/A   Clear
3:55 PM 68.0 °F - 39.2 °F 35% 29.53 in 10.0 mi SSW 28.8 mph 35.7 mph N/A   Clear
4:15 PM 69.8 °F - 41.0 °F 35% 29.53 in 10.0 mi SSW 24.2 mph 39.1 mph N/A   Clear
4:35 PM 69.8 °F - 39.2 °F 33% 29.54 in 10.0 mi SSW 29.9 mph 38.0 mph N/A   Clear
4:55 PM 69.8 °F - 41.0 °F 35% 29.54 in 10.0 mi SSW 26.5 mph 36.8 mph N/A   Clear
5:15 PM 69.8 °F - 41.0 °F 35% 29.55 in 10.0 mi SSW 20.7 mph 32.2 mph N/A   Clear
5:35 PM 69.8 °F - 41.0 °F 35% 29.54 in 10.0 mi SSW 23.0 mph 34.5 mph N/A   Clear
5:55 PM 69.8 °F - 41.0 °F 35% 29.52 in 10.0 mi SSW 21.9 mph 27.6 mph N/A   Clear
6:15 PM 69.8 °F - 41.0 °F 35% 29.54 in 10.0 mi SSW 21.9 mph 26.5 mph N/A   Clear
6:35 PM 68.0 °F - 41.0 °F 37% 29.55 in 10.0 mi SW 17.3 mph 23.0 mph N/A   Clear
6:55 PM 66.2 °F - 41.0 °F 40% 29.56 in 10.0 mi SSW 16.1 mph - N/A   Clear
7:15 PM 66.2 °F - 39.2 °F 37% 29.58 in 10.0 mi SW 13.8 mph - N/A   Clear
7:35 PM 64.4 °F - 39.2 °F 40% 29.60 in 10.0 mi WSW 12.7 mph 20.7 mph N/A   Clear
7:55 PM 66.2 °F - 35.6 °F 32% 29.62 in 10.0 mi West 15.0 mph 25.3 mph N/A   Clear
8:15 PM 64.4 °F - 33.8 °F 32% 29.65 in 10.0 mi West 15.0 mph 23.0 mph N/A   Clear
8:35 PM 62.6 °F - 33.8 °F 34% 29.66 in 10.0 mi West 13.8 mph 19.6 mph N/A   Clear
8:55 PM 62.6 °F - 33.8 °F 34% 29.68 in 10.0 mi West 11.5 mph - N/A   Clear
9:15 PM 62.6 °F - 33.8 °F 34% 29.68 in 10.0 mi West 12.7 mph - N/A   Clear
9:35 PM 60.8 °F - 33.8 °F 36% 29.70 in 10.0 mi WNW 8.1 mph - N/A   Clear
9:55 PM 57.2 °F - 33.8 °F 41% 29.70 in 10.0 mi West 8.1 mph - N/A   Clear
10:15 PM 57.2 °F - 33.8 °F 41% 29.70 in 10.0 mi West 9.2 mph - N/A   Clear
10:35 PM 60.8 °F - 33.8 °F 36% 29.72 in 10.0 mi West 18.4 mph 23.0 mph N/A   Clear
10:55 PM 57.2 °F - 35.6 °F 44% 29.74 in 10.0 mi WNW 26.5 mph 34.5 mph N/A   Clear
11:15 PM 53.6 °F - 35.6 °F 51% 29.77 in 10.0 mi WNW 18.4 mph 28.8 mph N/A   Clear
11:35 PM 53.6 °F - 33.8 °F 47% 29.78 in 10.0 mi WNW 23.0 mph 33.4 mph N/A   Clear
11:55 PM 51.8 °F - 33.8 °F 50% 29.80 in 10.0 mi WNW 20.7 mph 28.8 mph N/A   Clear